This demonstration page uses our WeatherBlox Daily Observations layout. Learn more.

Left ArrowRight Arrow

34.16533, -84.80231

Hourly Observations for August 31, 2017

Temp ( °F °C ) Dew Point ( °F °C ) Humidity (%) Winds ( mph kmh ) Pressure ( in mb ) Visibility ( mi km ) Precip ( " mm )
12:02 am 00:02 Cloudy with Light Rain 69 20.6 69 20.6 100 100 Calm 30.06 1018 10 16 0.00 0.03
12:53 am 00:53 Cloudy with Light Rain 69 20.6 69 20.6 100 100 Calm 30.04 1017 10 16 0.01 0.25
1:53 am 01:53 Cloudy 69 20.6 69 20.6 100 100 Calm 30.04 1017 10 16 0.00 0.03
2:32 am 02:32 Cloudy 69 20.6 69 20.6 100 100 Calm 30.03 1017 10 16 0.00 0.00
2:53 am 02:53 Cloudy 69 20.6 69 20.6 100 100 VRB 6 9 30.02 1017 10 16 0.00 0.03
3:05 am 03:05 Cloudy 69 20.6 69 20.6 100 100 E 3 6 30.03 1017 10 16 0.00 0.00
3:53 am 03:53 Cloudy 69 20.6 69 20.6 100 100 Calm 30.01 1016 10 16 0.00 0.00
4:14 am 04:14 Cloudy 69 20.6 69 20.6 100 100 ESE 3 6 30.03 1017 10 16 0.00 0.00
4:50 am 04:50 Cloudy 70 21 70 21 100 100 E 3 6 30.03 1017 10 16 0.04 1.02
4:53 am 04:53 Cloudy 69 20.6 69 20.6 100 100 E 5 7 30.02 1017 10 16 0.04 1.02
5:09 am 05:09 Cloudy 69 20.6 69 20.6 100 100 VRB 3 6 30.03 1017 10 16 0.00 0.00
5:28 am 05:28 Cloudy with Light Rain 69 20.6 69 20.6 100 100 ENE 3 6 30.03 1017 4 6 0.05 1.27
5:51 am 05:51 Cloudy with Light Rain 70 21 70 21 100 100 VRB 3 6 30.03 1017 9 14 0.07 1.78
5:53 am 05:53 Cloudy with Light Rain 69 20.6 69 20.6 100 100 SE 5 7 30.00 1016 10 16 0.07 1.78
6:53 am 06:53 Cloudy 69 20.6 69 20.6 100 100 E 3 6 30.01 1016 10 16 0.00 0.03
7:53 am 07:53 Cloudy 69 20.6 69 20.6 100 100 E 5 7 30.02 1017 10 16 0.00 0.00
8:53 am 08:53 Cloudy with Light Rain 70 21.1 70 21.1 100 100 VRB 3 6 30.03 1017 9 14 0.02 0.51
9:53 am 09:53 Cloudy with Light Rain 71 21.7 71 21.7 100 100 ESE 3 6 30.02 1017 10 16 0.00 0.03
10:27 am 10:27 Cloudy with Heavy Rain 70 21.1 70 21.1 100 100 VRB 3 6 30.03 1017 2 3 0.14 3.56
10:35 am 10:35 Cloudy with Light Rain 71 21.7 71 21.7 100 100 Calm 30.03 1017 3 5 0.14 3.56
10:53 am 10:53 Cloudy with Light Rain 71 21.7 71 21.7 100 100 SE 6 9 30.02 1017 10 16 0.15 3.81
11:02 am 11:02 Cloudy with Light Rain 72 22.2 72 22.2 100 100 SE 3 6 30.03 1017 10 16 0.00 0.03
11:26 am 11:26 Mostly Cloudy 73 22.8 73 22.8 100 100 E 5 7 30.03 1017 10 16 0.00 0.03
11:39 am 11:39 Mostly Cloudy 73 22.8 73 22.8 100 100 ESE 5 7 30.03 1017 10 16 0.00 0.03
11:49 am 11:49 Cloudy 73 23 73 23 100 100 SE 5 7 30.03 1017 10 16 0.00 0.03
11:53 am 11:53 Cloudy 73 22.8 73 22.8 100 100 SE 6 9 30.02 1017 10 16 0.00 0.03
12:53 pm 12:53 Mostly Cloudy 76 24.4 74 23.3 94 94 SE 8 13 30.01 1016 10 16 0.00 0.00
1:53 pm 13:53 Cloudy 77 25 74 23.3 90 90 SSE 8 13 29.99 1016 10 16 0.00 0.03
2:11 pm 14:11 Mostly Cloudy 78 25.6 74 23.3 87 87 S 6 9 30.00 1016 10 16 0.00 0.00
2:53 pm 14:53 Partly Cloudy 79 26.1 74 23.3 85 85 SSE 8 13 29.97 1015 10 16 0.00 0.03
3:21 pm 15:21 Mostly Cloudy 81 27.2 73 22.8 77 77 S 7 11 29.94 1014 10 16 0.00 0.00
3:53 pm 15:53 Mostly Cloudy 81 27.2 72 22.2 74 74 S 5 7 29.93 1014 10 16 0.00 0.00
4:53 pm 16:53 Mostly Sunny 82 27.8 72 22.2 72 72 VRB 7 11 29.91 1013 10 16 0.00 0.00
5:53 pm 17:53 Mostly Sunny 82 27.8 72 22.2 72 72 VRB 7 11 29.89 1012 10 16 0.00 0.00
6:53 pm 18:53 Mostly Cloudy 80 26.7 71 21.7 74 74 SE 5 7 29.89 1012 10 16 0.00 0.00
7:53 pm 19:53 Mostly Cloudy 78 25.6 72 22.2 82 82 VRB 3 6 29.87 1012 10 16 0.00 0.00
8:53 pm 20:53 Cloudy with Rain 75 23.9 72 22.2 90 90 ESE 5 7 29.88 1012 6 10 0.02 0.51
9:53 pm 21:53 Mostly Clear with Light Rain 75 23.9 72 22.2 90 90 ESE 12 19 29.87 1011 10 16 0.00 0.03
10:44 pm 22:44 Cloudy with Light Rain 75 23.9 72 22.2 90 90 SE 7 11 29.88 1012 10 16 0.00 0.03
10:53 pm 22:53 Cloudy with Light Rain 75 23.9 71 21.7 88 88 SE 12 19 29.88 1012 10 16 0.00 0.03
11:53 pm 23:53 Mostly Cloudy 75 23.9 72 22.2 90 90 SSE 10 17 29.88 1012 10 16 0.00 0.03

Powered by AerisWeather